This is the latest recevied weather packets stored in our database for station/object JI6FPP-13. If no packets are shown the sender has not sent any weather packets the latest 10 day(s).
| Time | Temp. | Humidity | Pressure | Rain* | Wind** | Luminosity | Snow |
|---|---|---|---|---|---|---|---|
| 1777612579 | 22.78° C | 11% | 1005 hPa | 0 mm | - | - | - |
| 1777611979 | 22.22° C | 8% | 1004 hPa | 0 mm | - | - | - |
| 1777611379 | 21.67° C | 3% | 1004 hPa | 0 mm | - | - | - |
| 1777610779 | 22.78° C | 4% | 1005 hPa | 0 mm | - | - | - |
| 1777610180 | 23.33° C | 6% | 1006 hPa | 0 mm | - | - | - |
| 1777609580 | 23.33° C | 10% | 1006 hPa | 0 mm | - | - | - |
| 1777608980 | 22.78° C | 11% | 1005 hPa | 0 mm | - | - | - |
| 1777608380 | 22.22° C | 5% | 1005 hPa | 0 mm | - | - | - |
| 1777607778 | 22.22° C | 3% | 1005 hPa | 0 mm | - | - | - |
| 1777607179 | 22.22° C | 3% | 1006 hPa | 0 mm | - | - | - |
| 1777606579 | 23.89° C | 2% | 1006 hPa | 0 mm | - | - | - |
| 1777605980 | 24.44° C | 2% | 1006 hPa | 0 mm | - | - | - |
| 1777605378 | 25° C | 2% | 1005 hPa | 0 mm | - | - | - |
| 1777604778 | 25° C | 2% | 1005 hPa | 0 mm | - | - | - |
| 1777604178 | 25° C | 2% | 1005 hPa | 0 mm | - | - | - |
| 1777603579 | 25° C | 2% | 1005 hPa | 0 mm | - | - | - |
| 1777602980 | 25.56° C | 2% | 1006 hPa | 0 mm | - | - | - |
| 1777602380 | 25° C | 2% | 1006 hPa | 0 mm | - | - | - |
| 1777601778 | 25° C | 2% | 1006 hPa | 0 mm | - | - | - |
| 1777601178 | 24.44° C | 2% | 1005 hPa | 0 mm | - | - | - |
| 1777600579 | 25° C | 2% | 1005 hPa | 0 mm | - | - | - |
| 1777599979 | 25° C | 3% | 1005 hPa | 0 mm | - | - | - |
| 1777599379 | 24.44° C | 5% | 1005 hPa | 0 mm | - | - | - |
| 1777598779 | 23.89° C | 2% | 1005 hPa | 0 mm | - | - | - |
| 1777598179 | 23.89° C | 3% | 1004 hPa | 0 mm | - | - | - |
* Rain latest hour (hover to see other rain measurements)
** Current wind speed in m/s (hover to see current wind gust speed)